EW5134 Weather Reports


time (UTC)temp
F
wind
direction
speed
knots
gust
knots
rain 1hr
in
rain 24hr
in
rain mn
in
humidity
%
barometer
mb
20260507190011 50 271 7.0 14.8 0.00 0.00 0.00 62 1011.6
20260507185426 50 277 7.0 15.6 0.00 0.00 0.00 60 1011.4
20260507182419 49 321 7.0 13.9 0.00 0.00 0.00 65 1011.7
20260507180921 49 321 7.0 13.9 0.00 0.00 0.00 66 1011.8
20260507180115 48 276 7.8 11.3 0.00 0.00 0.00 65 1012.1
20260507173921 49 266 7.8 11.3 0.00 0.00 0.00 66 1012.1
20260507173127 48 273 7.0 12.2 0.00 0.00 0.00 68 1012.2
20260507170921 47 269 7.8 13.9 0.00 0.00 0.00 67 1012.4
20260507165419 47 261 6.1 13.0 0.00 0.00 0.00 67 1012.5
20260507163922 47 303 7.0 13.0 0.00 0.00 0.00 71 1012.5
20260507162417 47 190 2.6 9.6 0.00 0.00 0.00 73 1012.7
20260507160918 46 346 5.2 10.4 0.00 0.00 0.00 75 1012.7
20260507155417 46 334 5.2 10.4 0.00 0.00 0.00 74 1012.9
20260507153919 45 198 3.5 10.4 0.00 0.00 0.00 74 1012.9
20260507153116 44 299 4.3 9.6 0.00 0.00 0.00 75 1012.9
20260507150918 44 319 5.2 9.6 0.00 0.00 0.00 75 1013.1
20260507145415 44 292 5.2 12.2 0.00 0.00 0.00 74 1013.0
20260507144615 44 306 5.2 10.4 0.00 0.00 0.00 74 1012.8
20260507142415 44 315 5.2 11.3 0.00 0.00 0.00 74 1013.1
20260507140917 44 309 6.1 10.4 0.00 0.00 0.00 75 1013.1
20260507135415 43 298 6.1 11.3 0.00 0.00 0.00 74 1013.4
20260507133915 43 319 3.5 8.7 0.00 0.00 0.00 74 1013.3
20260507132416 42 321 2.6 10.4 0.00 0.00 0.00 73 1013.3
20260507130915 42 300 6.1 13.0 0.00 0.00 0.00 73 1013.5
20260507125411 42 295 5.2 10.4 0.00 0.00 0.00 80 1013.6
20260507123843 41 302 4.3 3.5 0.00 0.00 0.00 80 1013.5
20260507122200 40 311 3.5 7.8 0.00 0.00 0.00 81 1013.4
20260507122106 40 311 4.3 8.7 0.00 0.00 0.00 82 1013.3
20260507115905 39 269 2.6 6.1 0.00 0.00 0.00 87 1013.3
20260507114404 39 317 2.6 6.1 0.00 0.00 0.00 91 1013.4
20260507112200 38 285 0.0 3.5 0.00 0.00 0.00 94 1013.1
20260507112053 38 114 0.0 3.5 0.00 0.00 0.00 95 1012.9
20260507105159 36 123 0.9 2.6 0.00 0.00 0.00 96 1012.8
20260507103701 34 283 0.9 1.7 0.00 0.00 0.00 95 1013.1
20260507102201 33 355 0.9 1.7 0.00 0.00 0.00 94 1012.8
20260507100702 33 355 0.0 0.9 0.00 0.00 0.00 94 1012.6
20260507100554 33 355 0.9 3.5 0.00 0.00 0.00 93 1012.6
20260507093702 34 293 0.9 2.6 0.00 0.00 0.00 92 1012.5
20260507092144 35 293 0.9 1.7 0.00 0.00 0.00 91 1012.6
20260507091345 36 293 0.9 2.6 0.00 0.00 0.00 90 1012.9
20260507085140 36 317 0.0 2.6 0.00 0.00 0.00 90 1013.0
20260507083642 37 315 0.9 3.5 0.00 0.00 0.00 90 1012.9
20260507082142 37 323 0.9 3.5 0.00 0.00 0.00 90 1013.1
20260507080640 37 348 0.9 1.7 0.00 0.00 0.00 89 1012.8
20260507075140 38 344 0.9 1.7 0.00 0.00 0.00 87 1012.7
20260507073641 38 268 0.9 2.6 0.00 0.00 0.00 87 1012.7
20260507072140 38 285 1.7 4.3 0.00 0.00 0.00 86 1012.6
20260507071354 39 320 2.6 6.1 0.00 0.00 0.00 87 1012.6
20260507065140 39 266 2.6 7.0 0.00 0.00 0.00 88 1012.7
20260507063641 39 274 2.6 7.0 0.00 0.00 0.00 89 1012.8
20260507062140 39 315 4.3 10.4 0.00 0.00 0.00 89 1012.8
20260507060638 39 304 4.3 9.6 0.00 0.00 0.00 91 1013.0
20260507055138 40 318 5.2 10.4 0.00 0.00 0.00 93 1012.8
20260507054342 40 290 5.2 8.7 0.00 0.00 0.00 93 1012.8
20260507052139 40 311 6.1 12.2 0.00 0.00 0.00 94 1013.0
20260507050635 40 311 4.3 9.6 0.00 0.00 0.00 95 1013.0
20260507045829 41 309 3.5 7.0 0.00 0.00 0.00 95 1012.9
20260507043636 41 281 5.2 10.4 0.00 0.00 0.00 95 1012.9
20260507042134 42 325 7.0 12.2 0.00 0.00 0.00 96 1012.5
20260507040633 42 323 4.3 3.5 0.00 0.00 0.00 96 1012.3
20260507034941 42 329 4.3 8.7 0.01 0.01 0.72 96 1012.1
20260507033456 43 270 2.6 7.8 0.01 0.01 0.72 96 1012.2
20260507031942 43 290 1.7 4.3 0.01 0.01 0.72 96 1012.3
20260507030444 43 213 1.7 5.2 0.00 0.00 0.71 96 1012.4
20260507024925 43 267 1.7 5.2 0.00 0.00 0.71 96 1012.3
20260507023427 42 273 2.6 6.1 0.00 0.00 0.71 96 1012.3
20260507021918 42 273 1.7 2.6 0.00 0.00 0.71 96 1012.3
20260507020421 42 244 0.0 0.9 0.00 0.00 0.71 96 1012.3
20260507014918 42 242 0.0 0.0 0.00 0.00 0.71 96 1012.5
20260507013418 42 242 0.0 1.7 0.00 0.00 0.71 96 1012.5
20260507011920 42 242 0.0 1.7 0.00 0.00 0.71 96 1012.3
20260507010418 42 242 0.9 2.6 0.00 0.00 0.71 96 1012.4
20260507004919 42 258 0.9 2.6 0.00 0.00 0.71 96 1012.3
20260507003420 42 267 0.9 3.5 0.00 0.00 0.71 96 1012.2
20260507002617 42 276 2.6 6.1 0.00 0.00 0.71 96 1011.8
20260507000420 42 266 1.7 6.1 0.00 0.00 0.71 96 1011.6
20260506234915 42 273 1.7 5.2 0.00 0.00 0.71 96 1011.6
20260506233418 42 277 1.7 3.5 0.00 0.00 0.71 96 1011.4
20260506231916 43 277 1.7 3.5 0.00 0.00 0.71 96 1011.1
20260506230418 42 262 0.9 2.6 0.00 0.00 0.71 96 1010.6
20260506224916 43 248 0.9 3.5 0.00 0.00 0.71 96 1010.9
20260506223417 43 320 2.6 7.0 0.00 0.00 0.71 96 1011.0
20260506221916 43 332 3.5 7.8 0.00 0.00 0.71 96 1011.0
20260506221117 42 296 3.5 7.0 0.00 0.00 0.71 97 1011.1
20260506214846 42 344 5.2 7.8 0.00 0.00 0.71 97 1011.0
20260506213347 43 324 4.3 8.7 0.00 0.00 0.71 98 1010.7
20260506212427 42 316 7.0 11.3 0.00 0.00 0.71 97 1010.5
20260506211848 42 306 6.1 11.3 0.00 0.00 0.71 97 1010.7
20260506205545 42 327 5.2 11.3 0.00 0.00 0.71 97 1010.4
20260506204041 42 319 5.2 11.3 0.00 0.00 0.71 97 1010.4
20260506201847 42 332 6.1 12.2 0.00 0.00 0.71 98 1010.1
20260506200348 42 317 7.8 13.0 0.00 0.00 0.71 97 1010.1
20260506194845 43 348 7.8 12.2 0.00 0.00 0.71 97 1010.1
20260506194033 43 324 6.1 7.0 0.00 0.00 0.71 97 1009.9
20260506191737 43 294 7.0 9.6 0.03 0.51 0.71 97 1009.8
20260506190238 43 319 7.0 12.2 0.02 0.50 0.70 97 1009.8